This is the latest recevied weather packets stored in our database for station/object KN4AN. If no packets are shown the sender has not sent any weather packets the latest 10 day(s).
| Time | Temp. | Humidity | Pressure | Rain* | Wind** | Luminosity | Snow |
|---|---|---|---|---|---|---|---|
| 1787753311 | 22.22° C | 70% | 1020.2 hPa | 0 mm | - | 476 W/m² | - |
| 1787753006 | 22.22° C | 68% | 1020.3 hPa | 0 mm | - | 437 W/m² | - |
| 1787752705 | 22.22° C | 69% | 1020.1 hPa | 0 mm | - | 444 W/m² | - |
| 1787752401 | 21.67° C | 71% | 1020.1 hPa | 0 mm | - | 425 W/m² | - |
| 1787752101 | 21.11° C | 73% | 1020.1 hPa | 0 mm | - | 405 W/m² | - |
| 1787751795 | 21.11° C | 73% | 1020.3 hPa | 0 mm | - | 392 W/m² | - |
| 1787751490 | 21.11° C | 73% | 1020.3 hPa | 0 mm | - | 372 W/m² | - |
| 1787751185 | 20.56° C | 76% | 1020.3 hPa | 0 mm | - | 357 W/m² | - |
| 1787750881 | 20° C | 77% | 1020.1 hPa | 0 mm | - | 335 W/m² | - |
| 1787750576 | 19.44° C | 78% | 1020.2 hPa | 0 mm | - | 418 W/m² | - |
| 1787750270 | 19.44° C | 77% | 1020.2 hPa | 0 mm | - | 491 W/m² | - |
| 1787749965 | 19.44° C | 78% | 1020.4 hPa | 0 mm | - | 182 W/m² | - |
| 1787749662 | 19.44° C | 78% | 1020.5 hPa | 0 mm | - | 456 W/m² | - |
| 1787749358 | 20° C | 76% | 1020.4 hPa | 0 mm | - | 404 W/m² | - |
| 1787749052 | 19.44° C | 78% | 1020.5 hPa | 0 mm | - | 341 W/m² | - |
| 1787748747 | 18.89° C | 79% | 1020.3 hPa | 0 mm | - | 311 W/m² | - |
| 1787748441 | 18.89° C | 82% | 1020.4 hPa | 0 mm | - | 278 W/m² | - |
| 1787748138 | 18.33° C | 82% | 1020.4 hPa | 0 mm | - | 248 W/m² | - |
| 1787747837 | 17.78° C | 84% | 1020.5 hPa | 0 mm | - | 222 W/m² | - |
| 1787747533 | 17.22° C | 87% | 1020.5 hPa | 0 mm | - | 172 W/m² | - |
| 1787747232 | 17.22° C | 88% | 1020.4 hPa | 0 mm | - | 160 W/m² | - |
| 1787746929 | 16.67° C | 92% | 1020.4 hPa | 0 mm | - | 133 W/m² | - |
| 1787746629 | 16.11° C | 96% | 1020.6 hPa | 0 mm | - | 115 W/m² | - |
| 1787746328 | 16.11° C | 98% | 1020.6 hPa | 0 mm | - | 106 W/m² | - |
| 1787746027 | 16.67° C | 99% | 1020.6 hPa | 0 mm | - | 48 W/m² | - |
* Rain latest hour (hover to see other rain measurements)
** Current wind speed in m/s (hover to see current wind gust speed)